Date String (YYYY-MM-DD hh:mm:ss) UTC,Instrument flags,Ambient pressure (hPa),Sample flow (lpm),Bypass flow (lpm),Sample temperature (°C),Ambient temperature (°C),ASC tube jacket temperature (°C),LED temperature (°C),Box temperature (°C),Sample RH (%),Span deviation,Mass concentration (μg/m³),Mass concentration (μg/m³),Mass concentration (μg/m³)
DateTimeUTC,F1_M11,P_M11,Q1_M11,Q2_M11,T1_M11,T2_M11,T3_M11,T4_M11,T5_M11,U1_M11,ZSPAN_M11,X2_M11,X0_M11,X1_M11
2021-09-28 11:00:00,,0823.8,5.00,0.00,29.9,29.0,00.0,39.0,31.8,16.0,0000.0,0006.02,0018.55,0004.13
2021-09-28 11:01:00,,0823.9,5.02,0.00,30.0,29.0,00.0,39.0,31.7,16.5,0000.0,0006.05,0018.58,0004.17
2021-09-28 11:02:00,,0824.0,4.99,0.00,30.0,29.0,00.0,39.0,31.8,16.3,0000.0,0006.11,0018.93,0004.19
2021-09-28 11:03:00,,0824.1,5.00,0.00,30.0,29.0,00.0,39.1,31.7,16.4,0000.0,0006.14,0018.78,0004.22
2021-09-28 11:04:00,,0824.1,5.00,0.00,30.0,29.0,00.0,39.1,31.7,17.6,0000.0,0006.17,0019.61,0004.24
2021-09-28 11:05:00,,0824.1,5.01,0.00,29.9,29.0,00.0,39.1,31.7,18.8,0000.0,0006.16,0019.79,0004.25
2021-09-28 11:06:00,,0824.1,5.00,0.00,29.9,29.0,00.0,39.1,31.7,19.5,0000.7,0006.12,0019.27,0004.25
2021-09-28 11:07:00,,0824.1,4.99,0.00,29.9,28.9,00.0,39.1,31.6,18.9,0002.4,0006.16,0019.47,0004.27
2021-09-28 11:08:00,,0824.1,4.99,0.00,29.9,28.9,00.0,39.1,31.6,18.9,0002.4,0006.28,0020.72,0004.30
2021-09-28 11:09:00,,0824.0,5.00,0.00,29.8,28.9,00.0,39.1,31.6,18.4,0001.5,0006.33,0021.34,0004.33
2021-09-28 11:10:00,,0824.0,5.01,0.00,29.8,28.9,00.0,39.0,31.5,18.0,0002.3,0006.37,0022.09,0004.37
2021-09-28 11:11:00,,0824.0,4.99,0.00,29.8,28.9,00.0,39.0,31.5,17.4,0002.8,0006.41,0022.93,0004.38
2021-09-28 11:12:00,,0824.0,5.00,0.00,29.9,28.9,00.0,39.0,31.6,16.6,0002.9,0006.52,0023.28,0004.41
2021-09-28 11:13:00,,0824.0,5.00,0.00,29.9,29.0,00.0,39.0,31.6,15.7,0003.0,0006.65,0023.87,0004.45
2021-09-28 11:14:00,,0823.9,5.01,0.00,29.9,29.0,00.0,39.0,31.6,15.5,0003.0,0006.89,0024.80,0004.47
2021-09-28 11:15:00,,0823.8,5.00,0.00,29.9,29.1,00.0,39.0,31.7,15.6,0003.0,0007.06,0025.28,0004.50
2021-09-28 11:16:00,,0823.7,4.99,0.00,29.9,29.1,00.0,39.1,31.7,15.5,0002.8,0007.17,0025.40,0004.55
2021-09-28 11:17:00,,0823.7,5.00,0.00,30.0,29.2,00.0,39.1,31.7,15.0,0002.5,0007.32,0026.26,0004.58
2021-09-28 11:18:00,,0823.8,5.00,0.00,30.0,29.2,00.0,39.1,31.8,14.7,0001.9,0007.44,0027.28,0004.60
2021-09-28 11:19:00,,0823.9,5.00,0.00,30.0,29.2,00.0,39.1,31.8,14.6,0002.2,0007.55,0027.49,0004.62
2021-09-28 11:20:00,,0823.9,5.00,0.00,30.1,29.3,00.0,39.1,31.9,14.6,0002.9,0007.66,0028.08,0004.62
2021-09-28 11:21:00,,0824.0,5.00,0.00,30.1,29.3,00.0,39.1,31.9,15.3,0002.9,0007.76,0028.07,0004.61
2021-09-28 11:22:00,,0824.0,5.00,0.00,30.1,29.3,00.0,39.1,31.9,15.6,0002.5,0007.82,0028.39,0004.62
2021-09-28 11:23:00,,0824.1,5.00,0.00,30.1,29.4,00.0,39.1,31.9,15.4,0002.5,0007.88,0028.50,0004.62
2021-09-28 11:24:00,,0824.1,4.99,0.00,30.2,29.4,00.0,39.2,31.9,15.0,0002.6,0007.91,0028.50,0004.61
2021-09-28 11:25:00,,0824.1,5.00,0.00,30.1,27.8,00.0,39.2,31.6,15.8,0002.3,0007.73,0027.94,0004.60
2021-09-28 11:26:00,,0824.1,5.00,0.00,29.9,26.4,00.0,39.1,31.1,15.6,0001.6,0007.73,0028.20,0004.59
2021-09-28 11:27:00,,0824.2,5.00,0.00,29.8,26.4,00.0,39.1,31.2,15.4,0001.6,0007.83,0029.66,0004.59
2021-09-28 11:28:00,,0824.2,5.01,0.00,29.8,26.8,00.0,39.0,31.2,15.7,0001.8,0007.82,0030.88,0004.60
2021-09-28 11:29:00,,0824.1,4.99,0.00,29.7,27.2,00.0,39.0,31.2,15.4,0002.3,0007.76,0031.05,0004.57
2021-09-28 11:30:00,,0824.1,5.01,0.00,29.7,27.5,00.0,39.0,31.3,15.3,0001.9,0007.67,0031.54,0004.56
2021-09-28 11:31:00,,0824.1,4.99,0.00,29.7,27.8,00.0,38.9,31.3,15.6,0001.0,0007.65,0031.56,0004.55
2021-09-28 11:32:00,,0824.0,5.00,0.00,29.7,28.1,00.0,38.9,31.4,16.5,0000.9,0007.65,0031.59,0004.55
2021-09-28 11:33:00,,0823.7,5.01,0.00,29.7,28.2,00.0,38.9,31.4,16.2,0000.6,0007.63,0031.62,0004.54
2021-09-28 11:34:00,,0823.8,5.00,0.00,29.7,28.4,00.0,38.9,31.4,16.3,0000.4,0007.58,0032.03,0004.53
2021-09-28 11:35:00,,0823.8,4.99,0.00,29.8,28.5,00.0,38.9,31.5,16.0,0000.2,0007.53,0032.79,0004.51
2021-09-28 11:36:00,,0823.8,5.00,0.00,29.8,28.6,00.0,38.9,31.5,16.6,0000.2,0007.45,0034.08,0004.50
2021-09-28 11:37:00,,0823.7,5.01,0.00,29.8,28.7,00.0,38.9,31.5,16.5,0000.5,0007.26,0034.66,0004.47
2021-09-28 11:38:00,,0823.7,4.99,0.00,29.8,28.7,00.0,38.9,31.5,15.8,0000.6,0007.12,0034.92,0004.44
2021-09-28 11:39:00,,0823.7,5.00,0.00,29.8,28.8,00.0,38.9,31.6,15.9,0000.4,0007.07,0033.22,0004.44
2021-09-28 11:40:00,,0823.6,5.01,0.00,29.8,28.9,00.0,38.9,31.6,16.0,0000.6,0007.00,0032.13,0004.44
2021-09-28 11:41:00,,0823.5,4.99,0.00,29.9,28.9,00.0,38.9,31.6,15.8,0000.7,0006.94,0030.51,0004.42
2021-09-28 11:42:00,,0823.4,5.01,0.00,29.9,28.9,00.0,39.0,31.6,15.6,0000.8,0006.80,0029.16,0004.42
2021-09-28 11:43:00,,0823.4,5.00,0.00,29.9,28.9,00.0,39.0,31.7,15.4,0000.3,0006.68,0029.05,0004.41
2021-09-28 11:44:00,,0823.3,4.99,0.00,29.9,29.0,00.0,39.0,31.7,15.3,0000.0,0006.73,0028.48,0004.41
2021-09-28 11:45:00,,0823.3,5.00,0.00,29.9,28.9,00.0,39.0,31.7,15.5,0000.0,0006.78,0028.88,0004.40
2021-09-28 11:46:00,,0823.3,5.00,0.00,29.9,28.9,00.0,39.0,31.7,15.5,0000.0,0006.72,0027.61,0004.39
2021-09-28 11:47:00,,0823.2,4.99,0.00,30.0,28.9,00.0,39.0,31.7,15.2,0000.0,0006.79,0026.27,0004.40
2021-09-28 11:48:00,,0823.2,5.01,0.00,30.0,28.9,00.0,39.0,31.7,14.6,0000.0,0006.94,0025.38,0004.41
2021-09-28 11:49:00,,0823.1,5.00,0.00,30.0,28.9,00.0,39.0,31.7,14.8,0000.0,0006.96,0023.46,0004.40
2021-09-28 11:50:00,,0823.1,5.00,0.00,30.0,28.9,00.0,39.0,31.7,15.0,0000.0,0006.94,0023.36,0004.39
2021-09-28 11:51:00,,0823.1,5.01,0.00,30.0,28.9,00.0,39.1,31.7,14.9,-000.1,0006.96,0024.60,0004.40
2021-09-28 11:52:00,,0823.2,4.99,0.00,30.0,28.9,00.0,39.1,31.7,14.8,-000.3,0006.94,0024.43,0004.39
2021-09-28 11:53:00,,0823.2,5.00,0.00,30.0,28.9,00.0,39.1,31.7,14.4,-000.4,0006.95,0024.38,0004.39
2021-09-28 11:54:00,,0823.2,5.01,0.00,30.0,28.9,00.0,39.1,31.7,14.5,-000.5,0007.06,0024.04,0004.37
2021-09-28 11:55:00,,0823.2,4.99,0.00,30.0,28.9,00.0,39.1,31.8,14.9,-000.4,0006.97,0023.91,0004.35
2021-09-28 11:56:00,,0823.1,5.01,0.00,30.0,28.9,00.0,39.1,31.7,14.9,-000.6,0006.84,0022.71,0004.33
2021-09-28 11:57:00,,0823.1,4.99,0.00,30.1,29.0,00.0,39.1,31.8,15.0,-000.7,0006.77,0022.95,0004.32
2021-09-28 11:58:00,,0823.1,5.01,0.00,30.1,29.0,00.0,39.1,31.8,15.0,-000.0,0006.63,0023.18,0004.28
2021-09-28 11:59:00,,0823.2,5.01,0.00,30.1,29.0,00.0,39.1,31.8,15.0,-000.1,0006.49,0022.88,0004.24
